Madawaska, ME

3:20 AM EDT on August 27, 2016 (GMT -0400)
Northern Aroostook Regional

Weather History for KFVE - October, 2011

Change the Weather History Date:

Sunday, October 23, 2011

  Actual Average Record
Temperature  
Mean Temperature 44 °F 39 °F  
Max Temperature 48 °F 46 °F 60 °F (2007)
Min Temperature 40 °F 33 °F 16 °F (2008)
Degree Days  
Heating Degree Days 21    
Month to date heating degree days 399  
Since 1 July heating degree days 783  
Cooling Degree Days 0    
Month to date cooling degree days 3  
Year to date cooling degree days 87  
Moisture  
Dew Point 39 °F    
Average Humidity 83    
Maximum Humidity 97    
Minimum Humidity 71    
Precipitation  
Precipitation 0.00 in 0.08 in 0.88 in (1999)
Month to date precipitation 2.48 1.92  
Year to date precipitation 37.09 27.50  
Sea Level Pressure  
Sea Level Pressure 30.02 in    
Wind  
Wind Speed 5 mph (West)    
Max Wind Speed 12 mph    
Max Gust Speed 15 mph    
Visibility 10 miles    
Events      
T = Trace of Precipitation, MM = Missing Value Source: NWS Daily Summary

Daily Weather History Graph

Daily Weather History Graph

Search for Another Location

Airport or City:

Trip Planner

Search our weather history database for the weather conditions in past years. The results will help you decide how hot, cold, wet, or windy it might be!

Date:

Astronomy

Oct. 23, 2011 Rise Set
Actual Time 7:02 AM EDT 5:31 PM EDT
Civil Twilight 6:31 AM EDT 6:02 PM EDT
Nautical Twilight 5:55 AM EDT 6:38 PM EDT
Astronomical Twilight 5:20 AM EDT 7:13 PM EDT
Moon 2:51 AM EDT (10/23) 3:31 PM EDT (10/23)
Length of Visible Light 11h 31m
Length of Day
10h 28m
Waning Crescent, 14% of the Moon is Illuminated
Oct 23
Waning Crescent
Oct 26
New
Nov 2
First Quarter
Nov 10
Full
Nov 18
Last Quarter

Hourly Weather History & Observations

Time (EDT) Temp. Windchill Dew Point Humidity Pressure Visibility Wind Dir Wind Speed Gust Speed Precip Events Conditions
12:53 AM 43.0 °F 41.3 °F 41.0 °F 93% 29.94 in 10.0 mi West 3.5 mph - N/A   Overcast
1:53 AM 43.0 °F 41.3 °F 41.0 °F 93% 29.94 in 10.0 mi West 3.5 mph - N/A   Overcast
2:53 AM 42.1 °F 38.4 °F 41.0 °F 96% 29.95 in 9.0 mi West 5.8 mph - N/A   Overcast
3:53 AM 42.1 °F 40.2 °F 41.0 °F 96% 29.96 in 9.0 mi West 3.5 mph - N/A   Overcast
4:53 AM 42.1 °F 38.4 °F 39.9 °F 92% 29.97 in 10.0 mi WSW 5.8 mph - N/A   Overcast
5:53 AM 42.1 °F 37.7 °F 39.9 °F 92% 29.99 in 10.0 mi West 6.9 mph - N/A   Overcast
6:53 AM 39.9 °F 35.1 °F 39.0 °F 97% 30.00 in 10.0 mi West 6.9 mph - N/A   Scattered Clouds
7:53 AM 39.9 °F 35.1 °F 37.9 °F 93% 30.02 in 9.0 mi West 6.9 mph - N/A   Clear
8:53 AM 44.1 °F 40.8 °F 39.9 °F 85% 30.02 in 9.0 mi WNW 5.8 mph - N/A   Clear
9:51 AM 46.4 °F 42.9 °F 41.0 °F 81% 30.02 in 9.0 mi WNW 6.9 mph - N/A   Mostly Cloudy
9:53 AM 46.4 °F 42.9 °F 41.0 °F 81% 30.02 in 9.0 mi West 6.9 mph - N/A   Mostly Cloudy
10:53 AM 46.9 °F - 41.0 °F 80% 30.03 in 10.0 mi WNW 8.1 mph - N/A   Overcast
11:10 AM 46.4 °F 42.4 °F 41.0 °F 81% 30.02 in 9.0 mi West 8.1 mph - N/A   Mostly Cloudy
11:53 AM 46.9 °F - 39.9 °F 77% 30.03 in 9.0 mi NW 5.8 mph - N/A   Overcast
12:53 PM 46.0 °F 42.5 °F 39.0 °F 76% 30.03 in 9.0 mi WNW 6.9 mph - N/A   Overcast
1:53 PM 46.9 °F - 39.0 °F 74% 30.04 in 9.0 mi NW 3.5 mph - N/A   Overcast
2:53 PM 46.9 °F - 39.9 °F 77% 30.04 in 9.0 mi WSW 4.6 mph - N/A   Overcast
3:53 PM 46.9 °F - 39.0 °F 74% 30.04 in 9.0 mi WSW 4.6 mph - N/A   Overcast
4:53 PM 46.0 °F 43.1 °F 39.9 °F 79% 30.04 in 9.0 mi West 5.8 mph - N/A   Overcast
5:53 PM 44.1 °F 40.8 °F 37.9 °F 79% 30.06 in 10.0 mi West 5.8 mph - N/A   Overcast
6:53 PM 44.1 °F - 37.9 °F 79% 30.06 in 10.0 mi Calm Calm - N/A   Overcast
7:53 PM 44.6 °F - 35.6 °F 71% 30.05 in 10.0 mi Calm Calm - N/A   Mostly Cloudy
8:53 PM 43.0 °F 38.2 °F 36.0 °F 76% 30.08 in 10.0 mi South 8.1 mph - N/A   Overcast
9:53 PM 43.0 °F - 36.0 °F 76% 30.08 in 10.0 mi Calm Calm - N/A   Overcast
10:53 PM 43.0 °F 41.3 °F 35.1 °F 74% 30.08 in 10.0 mi West 3.5 mph - N/A   Overcast
11:53 PM 41.0 °F 39.0 °F 37.0 °F 86% 30.09 in 9.0 mi SSW 3.5 mph - N/A   Overcast